TimeEDT,TemperatureF,Dew PointF,Humidity,Sea Level PressureIn,VisibilityMPH,Wind Direction,Wind SpeedMPH,Gust SpeedMPH,PrecipitationIn,Events,Conditions,WindDirDegrees,DateUTC
12:52 AM,57.0,52.0,83,29.83,10.0,East,12.7,-,N/A,,Overcast,80,2013-04-12 04:52:00
1:11 AM,55.4,51.8,88,29.82,9.0,ENE,15.0,-,N/A,,Overcast,60,2013-04-12 05:11:00
1:52 AM,55.0,51.1,86,29.82,8.0,East,15.0,-,N/A,,Overcast,80,2013-04-12 05:52:00
2:52 AM,54.0,51.1,90,29.80,8.0,East,11.5,-,N/A,,Overcast,90,2013-04-12 06:52:00
3:52 AM,54.0,51.1,90,29.77,9.0,ENE,12.7,-,N/A,,Overcast,60,2013-04-12 07:52:00
4:52 AM,54.0,51.1,90,29.75,9.0,East,10.4,-,0.00,Rain,Light Rain,80,2013-04-12 08:52:00
5:52 AM,54.0,52.0,93,29.72,5.0,ENE,9.2,-,0.02,Rain,Light Rain,70,2013-04-12 09:52:00
6:21 AM,53.6,51.8,94,29.71,5.0,East,6.9,-,0.01,,Overcast,90,2013-04-12 10:21:00
6:30 AM,53.6,51.8,94,29.71,2.5,ENE,9.2,-,0.01,Rain,Light Rain,70,2013-04-12 10:30:00
6:52 AM,55.0,53.1,93,29.70,2.5,East,6.9,-,0.01,,Overcast,90,2013-04-12 10:52:00
7:04 AM,55.4,53.6,94,29.72,2.0,Calm,Calm,-,0.01,Rain-Thunderstorm,Light Thunderstorms and Rain,0,2013-04-12 11:04:00
7:11 AM,55.4,53.6,94,29.72,1.5,Variable,4.6,-,0.02,Rain-Thunderstorm,Light Thunderstorms and Rain,0,2013-04-12 11:11:00
7:19 AM,55.4,53.6,94,29.70,2.5,East,6.9,-,0.08,Rain-Thunderstorm,Light Thunderstorms and Rain,100,2013-04-12 11:19:00
7:25 AM,55.4,53.6,94,29.71,2.5,Calm,Calm,-,0.09,Rain,Rain,0,2013-04-12 11:25:00
7:34 AM,55.4,53.6,94,29.70,3.0,East,6.9,-,0.12,Rain,Light Rain,100,2013-04-12 11:34:00
7:40 AM,55.4,53.6,94,29.70,2.0,East,6.9,-,0.14,Rain,Rain,100,2013-04-12 11:40:00
7:46 AM,55.4,53.6,94,29.76,1.5,Variable,5.8,-,0.17,Rain,Light Rain,0,2013-04-12 11:46:00
7:50 AM,55.4,53.6,94,29.77,0.5,West,13.8,31.1,0.20,Rain,Heavy Rain,280,2013-04-12 11:50:00
7:52 AM,55.9,54.0,93,29.76,1.2,WNW,5.8,31.1,0.23,Rain,Heavy Rain,290,2013-04-12 11:52:00
7:58 AM,55.4,53.6,94,29.72,2.0,NNE,4.6,29.9,0.08,Rain,Heavy Rain,20,2013-04-12 11:58:00
8:01 AM,55.4,53.6,94,29.73,3.0,Calm,Calm,-,0.11,Rain,Rain,0,2013-04-12 12:01:00
8:14 AM,57.2,53.6,88,29.74,4.0,ESE,6.9,-,0.15,Rain,Rain,120,2013-04-12 12:14:00
8:52 AM,57.9,55.0,90,29.70,6.0,Calm,Calm,-,0.22,Rain,Light Rain,0,2013-04-12 12:52:00
9:46 AM,59.0,57.2,94,29.69,5.0,ENE,8.1,-,0.05,Rain,Light Rain,60,2013-04-12 13:46:00
9:52 AM,59.0,57.0,93,29.69,1.8,Variable,3.5,-,0.07,Rain,Heavy Rain,0,2013-04-12 13:52:00
9:54 AM,59.0,57.2,94,29.67,0.5,East,8.1,-,0.03,Fog-Rain,Heavy Rain,100,2013-04-12 13:54:00
9:57 AM,59.0,57.2,94,29.68,1.5,ESE,13.8,-,0.16,Rain,Heavy Rain,120,2013-04-12 13:57:00
10:06 AM,60.8,57.2,88,29.68,3.0,SE,12.7,-,0.21,Rain,Light Rain,130,2013-04-12 14:06:00
10:20 AM,60.8,57.2,88,29.68,4.0,Calm,Calm,-,0.24,Rain,Light Rain,0,2013-04-12 14:20:00
10:44 AM,60.8,59.0,94,29.68,10.0,Calm,Calm,-,0.24,,Overcast,0,2013-04-12 14:44:00
10:52 AM,62.1,59.0,90,29.68,10.0,Calm,Calm,-,0.24,,Overcast,0,2013-04-12 14:52:00
11:02 AM,62.6,59.0,88,29.68,10.0,Calm,Calm,-,N/A,,Overcast,0,2013-04-12 15:02:00
11:19 AM,64.4,60.8,88,29.67,10.0,NNE,4.6,-,N/A,,Overcast,30,2013-04-12 15:19:00
11:29 AM,64.4,60.8,88,29.67,10.0,Calm,Calm,-,0.01,Rain,Light Rain,0,2013-04-12 15:29:00
11:52 AM,64.9,61.0,87,29.67,10.0,Variable,3.5,-,0.01,,Overcast,0,2013-04-12 15:52:00
12:03 PM,66.2,62.6,88,29.66,10.0,SE,3.5,-,N/A,,Overcast,130,2013-04-12 16:03:00
12:52 PM,69.1,64.0,84,29.65,10.0,SSE,5.8,-,N/A,,Overcast,160,2013-04-12 16:52:00
1:52 PM,72.0,64.9,78,29.61,10.0,South,11.5,-,0.00,Rain,Light Rain,170,2013-04-12 17:52:00
2:06 PM,71.6,64.4,78,29.61,10.0,South,11.5,-,0.00,,Overcast,170,2013-04-12 18:06:00
2:52 PM,73.9,64.9,73,29.60,10.0,South,11.5,-,0.00,,Mostly Cloudy,170,2013-04-12 18:52:00
3:06 PM,73.4,64.4,73,29.60,10.0,Calm,Calm,-,N/A,,Mostly Cloudy,0,2013-04-12 19:06:00
3:12 PM,73.4,64.4,73,29.59,10.0,NE,5.8,-,N/A,,Mostly Cloudy,50,2013-04-12 19:12:00
3:52 PM,71.1,64.9,81,29.59,10.0,ENE,13.8,-,N/A,,Mostly Cloudy,60,2013-04-12 19:52:00
4:52 PM,70.0,64.0,81,29.58,10.0,NE,11.5,-,N/A,,Mostly Cloudy,50,2013-04-12 20:52:00
5:52 PM,72.0,64.0,76,29.57,10.0,NNE,11.5,-,N/A,,Scattered Clouds,30,2013-04-12 21:52:00
6:52 PM,68.0,62.1,81,29.58,10.0,NE,11.5,-,N/A,,Scattered Clouds,40,2013-04-12 22:52:00
7:49 PM,64.4,57.2,77,29.60,10.0,NNE,15.0,-,N/A,,Mostly Cloudy,30,2013-04-12 23:49:00
7:52 PM,64.0,59.0,84,29.60,10.0,NE,15.0,-,N/A,,Mostly Cloudy,40,2013-04-12 23:52:00
8:19 PM,62.6,57.2,82,29.62,8.0,NE,16.1,-,N/A,,Overcast,50,2013-04-13 00:19:00
8:52 PM,61.0,57.0,87,29.65,4.0,NE,11.5,-,N/A,,Overcast,50,2013-04-13 00:52:00
9:38 PM,60.8,55.4,82,29.66,5.0,NE,6.9,-,N/A,,Overcast,50,2013-04-13 01:38:00
9:52 PM,60.1,55.9,86,29.68,5.0,NE,10.4,-,N/A,,Overcast,40,2013-04-13 01:52:00
10:05 PM,60.8,55.4,82,29.68,5.0,NNE,12.7,-,N/A,,Haze,20,2013-04-13 02:05:00
10:10 PM,60.8,55.4,82,29.68,5.0,NNE,11.5,-,N/A,,Haze,30,2013-04-13 02:10:00
10:45 PM,60.8,55.4,82,29.69,6.0,NE,11.5,-,N/A,,Haze,40,2013-04-13 02:45:00
10:52 PM,61.0,55.9,83,29.70,7.0,NNE,10.4,-,N/A,,Mostly Cloudy,30,2013-04-13 02:52:00
11:21 PM,60.8,55.4,82,29.72,9.0,NNE,12.7,-,N/A,,Mostly Cloudy,20,2013-04-13 03:21:00
11:52 PM,59.0,54.0,83,29.75,7.0,NNW,20.7,25.3,N/A,,Scattered Clouds,330,2013-04-13 03:52:00